Location: Unspecified
(0.0000°N, 0.0000°E)
Time: 17:13:46
(UTC+00:00)

deb Explorer IX - All Passes

Search period start: 21 December 2014 00:00
Search period end: 31 December 2014 00:00
Orbit: 558 x 1186 km, 38.8° (Epoch: 20 December)

Date Brightness Start Highest point End Pass type
(mag) Time Alt. Az. Time Alt. Az. Time Alt. Az.
21 Dec - 00:53:09 10° SW 01:00:42 61° SE 01:08:15 10° ENE night (unlit)
21 Dec - 02:42:39 10° W 02:49:21 32° NW 02:55:45 10° NNE night (unlit)
21 Dec - 12:00:26 10° N 12:03:04 16° NE 12:05:38 10° ENE daylight
21 Dec - 13:46:55 10° WNW 13:50:50 42° SW 13:54:52 10° SSE daylight
21 Dec - 22:59:54 10° S 23:04:21 17° SE 23:08:56 10° ESE night (unlit)
22 Dec - 00:45:30 10° SW 00:53:07 75° SE 01:00:49 10° NE night (unlit)
22 Dec - 02:35:39 10° W 02:41:49 26° NW 02:47:46 10° NNE night (unlit)
22 Dec - 11:52:16 10° NNW 11:55:40 22° NE 11:58:56 10° E daylight
22 Dec - 13:39:47 10° WNW 13:43:24 29° SW 13:47:05 10° SSE daylight
22 Dec - 22:51:35 10° S 22:56:48 21° SE 23:02:15 10° E visible
23 Dec - 00:37:52 10° SW 00:45:27 89° NW 00:53:13 10° NE night (unlit)
23 Dec - 02:28:46 10° W 02:34:14 21° NW 02:39:34 10° N night (unlit)
23 Dec - 11:44:15 10° NNW 11:48:11 32° NE 11:51:54 10° ESE daylight
23 Dec - 13:32:45 10° W 13:35:54 21° SW 13:39:04 10° S daylight
23 Dec - 22:43:23 10° SSW 22:49:08 26° SE 22:55:15 10° E visible
24 Dec - 00:30:14 10° SW 00:37:43 73° NW 00:45:27 10° NE night (unlit)
24 Dec - 02:22:03 10° WNW 02:26:36 17° NW 02:31:06 10° N night (unlit)
24 Dec - 11:36:19 10° NNW 11:40:37 46° NE 11:44:36 10° ESE daylight
24 Dec - 13:25:56 10° WSW 13:28:20 15° SW 13:30:42 10° S daylight
24 Dec - 22:35:14 10° SSW 22:41:22 32° SE 22:48:00 10° ENE visible
25 Dec - 00:22:37 10° WSW 00:29:55 59° NW 00:37:32 10° NE night (unlit)
25 Dec - 02:15:41 10° WNW 02:18:57 13° NW 02:22:13 10° N night (unlit)
25 Dec - 11:28:26 10° NW 11:32:58 67° NE 11:37:06 10° SE daylight
25 Dec - 13:19:57 10° SW 13:20:41 10° SW 13:21:25 10° SSW daylight
25 Dec - 22:27:07 10° SSW 22:33:31 39° SE 22:40:31 10° ENE visible
26 Dec - 00:15:02 10° WSW 00:22:03 47° NW 00:29:27 10° NNE night (unlit)
26 Dec - 09:35:43 10° NNE 09:37:01 11° NE 09:38:16 10° NE daylight
26 Dec - 11:20:34 10° NW 11:25:13 84° SW 11:29:25 10° SE daylight
26 Dec - 22:19:02 10° SSW 22:25:35 48° SE 22:32:51 10° ENE visible
27 Dec - 00:07:28 10° WSW 00:14:09 38° NW 00:21:13 10° NNE night (unlit)
27 Dec - 09:26:19 10° N 09:29:18 15° NE 09:32:04 10° ENE daylight
27 Dec - 11:12:44 10° WNW 11:17:23 58° SW 11:21:33 10° SE daylight
27 Dec - 20:28:01 10° SSE 20:29:12 11° SE 20:30:24 10° SE visible
27 Dec - 22:10:57 10° SW 22:17:33 60° SE 22:25:00 10° ENE visible
27 Dec - 23:59:58 10° W 00:06:12 31° NW 00:12:48 10° NNE night (unlit)
28 Dec - 09:17:32 10° NNW 09:21:30 21° NE 09:25:03 10° E daylight
28 Dec - 11:04:56 10° WNW 11:09:27 41° SW 11:13:30 10° SSE daylight
28 Dec - 20:18:16 10° SSE 20:21:14 14° SE 20:24:23 10° ESE visible
28 Dec - 22:02:53 10° SW 22:09:28 75° SE 22:16:59 10° NE visible
28 Dec - 23:52:32 10° W 23:58:12 25° NW 00:04:13 10° NNE night (unlit)
29 Dec - 09:08:56 10° NNW 09:13:36 29° NE 09:17:40 10° E daylight
29 Dec - 10:57:11 10° WNW 11:01:27 30° SW 11:05:17 10° SSE daylight
29 Dec - 20:09:19 10° S 20:13:10 17° SE 20:17:21 10° E visible
29 Dec - 21:54:49 10° SW 22:01:19 88° NW 22:08:48 10° NE visible
29 Dec - 23:45:12 10° W 23:50:10 20° NW 23:55:24 10° N night (unlit)
30 Dec - 09:00:25 10° NNW 09:05:36 39° NE 09:10:02 10° ESE daylight
30 Dec - 10:49:30 10° W 10:53:21 23° SW 10:56:51 10° S daylight
30 Dec - 20:00:35 10° S 20:05:00 21° SE 20:09:55 10° E visible
30 Dec - 21:46:45 10° SW 21:53:07 71° NW 22:00:28 10° NE visible
30 Dec - 23:38:06 10° WNW 23:42:06 16° NW 23:46:18 10° N night (unlit)
